CZ-2C R/B, 58916

Orbit data source: Space-Track

CZ-2C R/B, 58916 is space debris in LEO originally from a launch on Fri, 02 Feb 2024 UTC launched from the Xichang Space Center, China (XSC). Debris objects in space refer to the collection of defunct objects orbiting the Earth. Examples of debris include non-operational satellites, rocket bodies, and fragments generated from explosions, collisions, or faulty payload assembly.

Loading next visibility...
Identifier
58916, 2024-023M
Orbit
LEO
Last TLE update
14 hours ago
Origin
Manufacturer
CALT
Mission
Spacecraft
Bus & Motor
CZ-2 STAGE 2, Unknown motor
Mass
~3,800 kg wet, ~3,800 kg dry
Launch date (UTC)
2024-02-02 (1 year ago)
Launch vehicle
Unknown
Launch site
Xichang Space Center, China (XSC)
Object type
Payload
Rocket body
Debris
Shape & HBR
Cyl, 7.49 m
Radar Cross Section
23.715 m², Large (>1 m²)

Expand to show TLE details & history

TLE from 14 hours ago
0 CZ-2C R/B
1 58916U 24023M   25183.91605111  .00000153  00000-0  57879-4 0  9992
2 58916  49.8962 252.2583 0095834  24.8976 335.6535 14.70731020 75884
Epoch: 2025-07-02T21:59Z
TLE epoch observation values (Epoch: 2025-07-02T21:59:06.815Z)
Latitude
-0.00005°
Longitude
1.28957°
Altitude
597.94 km
Speed
7.595 km/s
True Right ascension
16h 49m 01s
True Declination
0° 00' 00"
Sunlit
Object was in full shadow at epoch
Visualization orbit readout
Latitude
-36.7527°
Longitude
-40.17393°
Altitude
655.97 km
Speed
7.537 km/s
Apparent Right ascension
13h 11m 51s
Apparent Declination
-38° 53' 43"
Sunlit
Object is in full shadow
Visualization observer readout
Local Sidereal Time
00:12:34
Azimuth
270.346° WNW
Elevation
-78.518°
Doppler factor
1
Orbital elements
Apogee altitude
726.951 km
Perigee altitude
592.062 km
Semi-major axis
7,037.643 km
Eccentricity
0.00958
Inclination
49.8962°
RAAN
252.2583°
Arg. of periapsis
24.8976°
True anomaly
Unknown
Mean anomaly
335.6535°
Eccentric anomaly
Unknown
Mean motion
3.67623 °/min
Orbital period
97.93 mins
BSTAR
0.000057879
Loading maneuver chart data...
Loading SW <> Apogee altitude chart data...
Loading historical data...
Loading historical data...
Loading historical data...
Loading historical data...
Loading historical data...
Loading historical data...
Loading historical data...

CZ-2C R/B Visibility forecast

Observer location: undefined°, undefined°

Span
Click to sort rows by Start time (UTC) header in descending order
Start Az.
Max El. time (UTC)
Max El. Az.
Max El.
End time (UTC)
End Az.
8 mins2025-07-03 13:06:55.096Z312.312° NW2025-07-03 13:10:55.096Z32.022° NE38.65°2025-07-03 13:14:55.096Z103.252° ESE
7 mins2025-07-03 14:49:55.096Z280.683° WNW2025-07-03 14:52:55.096Z227.571° WSW29.395°2025-07-03 14:56:55.096Z162.811° S
6 mins2025-07-04 06:46:55.096Z198.676° SSW2025-07-04 06:48:55.096Z155.832° SSE33.636°2025-07-04 06:52:55.096Z69.762° E
6 mins2025-07-04 08:28:55.096Z274.289° WNW2025-07-04 08:31:55.096Z346.151° N33.044°2025-07-04 08:34:55.096Z41.985° NE
5 mins2025-07-04 10:12:55.096Z322.505° NNW2025-07-04 10:14:55.096Z359.356° N21.37°2025-07-04 10:17:55.096Z45.662° ENE
6 mins2025-07-04 11:55:55.096Z331.696° NNW2025-07-04 11:57:55.096Z13.03° NNE27.972°2025-07-04 12:01:55.096Z79.649° E
|